Theta_e
352 356 358 357 351 346 350 353 351 352 350 349 345 349 350 349 350 357 343 343 344 345 345 344 333 330 327 325 326 331 339 340 330 330 335 340 338 336 329 335 334 340 336 333 333 335 336 335 334
356 353 359 353 344 345 349 348 351 350 350 348 348 349 350 354 351 347 342 342 344 345 345 345 331 329 328 325 326 326 327 327 329 335 340 340 335 335 338 340 342 336 333 332 332 342 336 335 334
349 353 353 345 343 345 347 345 350 350 348 349 349 349 350 352 350 343 342 342 344 345 345 342 331 329 328 326 326 326 326 326 326 328 331 335 337 340 330 339 341 342 333 335 331 337 337 335 334
354 353 348 346 345 347 346 347 349 350 349 346 346 349 348 350 346 344 341 341 343 344 344 334 331 329 328 328 327 330 330 327 326 327 334 342 341 336 341 337 339 336 334 332 332 332 336 338 338
349 347 347 347 346 346 347 348 350 351 350 348 346 345 348 348 346 344 341 341 342 343 344 334 330 330 329 328 331 334 334 332 328 326 329 339 339 341 342 336 342 341 333 342 341 332 337 331 340
346 346 345 347 348 346 348 349 350 349 349 346 344 344 348 346 345 343 341 340 341 341 342 345 330 329 329 331 336 337 337 336 335 329 327 332 340 340 342 337 339 342 342 335 341 339 342 331 331
344 343 345 346 349 349 348 349 350 350 349 347 347 347 347 345 344 344 342 339 339 341 343 344 342 329 333 337 341 338 338 337 337 335 328 327 332 339 338 341 339 336 339 342 339 334 341 339 337
343 344 343 343 345 351 349 349 351 350 350 348 350 348 346 346 344 343 342 341 340 340 343 344 345 346 348 348 342 342 340 340 340 338 331 327 330 333 337 340 339 337 341 337 339 341 329 337 340
340 343 341 341 343 351 350 350 352 351 349 351 350 347 347 347 343 342 342 342 342 342 344 344 345 348 349 348 347 342 341 342 340 336 334 338 345 346 345 340 338 337 338 339 335 336 337 331 332
340 339 341 343 345 346 348 349 350 350 350 353 352 349 350 346 344 341 342 342 342 343 344 345 346 347 348 347 348 345 348 348 339 335 332 340 342 345 345 344 341 336 336 339 336 335 335 336 345
339 340 340 344 345 345 349 349 348 348 349 350 352 348 348 346 343 341 341 340 341 342 344 346 347 348 347 347 346 345 345 343 333 339 340 344 342 343 348 348 347 346 340 345 345 346 344 346 346
337 339 342 346 348 347 348 347 345 346 346 349 349 347 347 347 343 342 341 341 341 343 345 346 348 348 347 346 345 345 345 345 341 341 342 342 344 344 346 346 347 346 347 347 347 347 348 346 347
337 342 345 347 348 348 348 347 345 346 346 348 348 348 349 347 347 344 343 343 344 345 347 347 348 347 347 345 345 345 346 348 346 341 341 343 349 344 343 343 342 348 349 348 347 348 349 348 348
340 345 347 347 349 349 349 347 346 347 346 347 348 348 348 349 348 347 346 345 346 347 349 349 349 347 342 339 339 345 347 350 348 345 343 343 343 343 343 343 344 348 350 347 345 345 345 346 351
344 349 349 349 350 350 348 352 348 347 347 347 348 348 348 349 350 350 350 349 349 349 350 349 349 348 338 335 343 347 349 349 350 346 343 345 345 344 343 343 343 344 344 345 345 347 349 347 351
341 343 345 349 349 350 347 354 351 348 347 348 348 349 349 350 350 350 351 351 351 350 349 351 346 347 346 346 347 349 351 353 352 354 349 347 345 344 343 344 344 345 344 346 344 349 348 349 350
337 340 339 346 348 350 348 350 351 351 349 348 348 349 349 350 351 351 351 351 351 350 346 349 348 347 348 346 347 350 351 351 351 351 351 351 345 344 346 348 347 345 347 344 349 350 350 345 350
338 338 337 338 346 347 348 346 352 350 351 351 350 350 350 350 351 351 351 351 351 352 347 351 346 343 347 350 347 351 352 351 352 351 351 346 350 345 345 351 348 347 348 345 350 345 350 345 349
336 336 337 340 344 345 346 346 351 350 351 351 351 350 350 349 350 350 350 351 351 353 351 346 349 346 347 351 349 347 348 351 351 351 351 346 346 346 346 350 351 348 349 345 344 349 347 349 348
335 336 338 344 345 346 347 346 349 349 350 350 352 350 349 349 350 350 349 350 350 352 353 347 345 346 346 352 352 351 351 351 351 351 349 348 347 347 350 348 352 346 350 351 346 348 348 347 348
336 333 335 340 347 345 345 346 348 346 347 348 348 347 346 346 347 348 349 350 350 351 347 347 347 347 347 349 353 350 351 350 352 351 350 350 346 346 346 348 347 347 347 348 348 351 352 347 347
335 330 330 341 345 340 345 338 348 347 349 348 348 347 346 344 345 346 348 351 350 352 350 346 346 348 352 348 353 352 352 351 352 351 352 351 350 347 344 345 346 348 348 347 350 351 350 351 349
333 333 335 341 342 340 343 339 345 346 350 353 350 350 349 347 346 345 348 351 351 351 351 349 341 344 347 347 349 352 353 351 353 354 354 352 347 346 346 345 344 345 347 350 348 348 350 348 351
332 336 339 340 337 336 337 337 334 344 349 349 344 347 348 344 344 346 347 348 353 351 351 346 344 338 342 346 349 347 343 346 352 354 354 353 352 353 353 353 350 343 348 349 346 348 348 348 349
331 336 337 337 337 334 339 336 334 345 349 345 346 347 344 349 343 348 350 349 352 354 353 350 344 345 348 352 351 346 340 343 345 351 352 352 353 352 352 353 352 353 350 346 345 347 348 348 347
331 333 333 334 332 333 342 333 344 342 346 346 346 351 351 350 347 351 353 354 355 353 353 355 355 354 353 352 349 348 345 351 348 349 351 351 351 350 350 349 350 352 350 348 347 348 350 348 350
331 330 331 331 331 330 332 337 341 345 348 351 349 349 350 350 351 352 352 353 354 355 354 350 347 349 352 349 349 348 348 346 348 348 349 350 349 347 349 348 347 348 348 340 340 349 351 351 350
330 332 331 331 333 335 336 340 339 348 350 352 352 351 350 351 349 343 341 340 340 342 343 344 345 346 346 346 345 345 345 345 345 342 344 344 342 344 344 346 347 348 348 349 349 350 351 351 353
333 332 333 334 334 335 336 337 345 345 347 353 351 351 351 349 343 339 338 336 334 333 332 331 332 331 331 327 327 328 329 330 328 326 325 325 325 326 329 334 338 341 344 347 347 348 348 350 350
335 334 333 333 338 337 337 335 342 344 343 349 350 353 352 344 340 338 336 334 333 332 330 330 329 328 318 314 314 316 315 313 316 313 313 314 315 318 323 324 323 323 329 338 342 343 346 347 349
Wind_Speed
9 6 1 2 2 8 11 10 4 7 5 4 10 2 5 7 6 4 21 19 23 21 19 19 17 17 16 14 14 14 12 11 11 10 10 9 9 9 8 8 10 11 10 10 11 12 13 15 15
2 4 2 5 5 11 10 5 10 8 9 10 8 5 3 8 9 16 25 24 24 21 19 17 18 16 15 13 12 12 11 10 9 7 8 7 7 7 8 9 10 8 9 10 11 12 12 13 14
4 3 3 2 12 13 12 11 10 12 8 5 5 6 4 5 8 25 20 26 23 20 18 17 17 15 12 12 10 10 9 9 8 7 6 5 4 6 6 8 9 8 7 8 10 12 10 11 12
4 1 1 10 14 9 13 10 11 8 8 6 7 8 8 7 18 15 26 25 22 19 17 17 16 14 11 10 9 7 7 7 7 6 6 5 4 4 5 8 6 6 6 8 9 10 11 11 12
3 2 7 9 12 10 9 10 6 4 7 5 3 8 11 8 10 23 25 22 20 18 15 16 14 12 10 9 8 6 6 5 5 5 5 5 5 4 4 7 5 5 6 8 7 9 9 11 11
4 3 7 10 10 8 7 6 4 8 8 11 15 14 9 11 18 23 23 21 18 16 14 13 13 11 10 9 6 5 4 3 3 3 4 4 5 4 4 5 6 4 5 6 7 7 7 10 10
4 3 8 6 7 6 4 3 6 7 7 10 7 9 10 14 19 21 20 18 16 14 13 12 11 11 10 7 4 3 2 1 1 2 2 1 2 3 2 3 3 4 5 4 5 7 8 9 10
3 3 4 5 7 7 4 2 4 6 11 13 3 7 12 18 20 20 18 17 15 13 12 11 11 9 7 3 4 2 2 2 1 1 2 1 2 2 0 1 2 3 3 4 6 5 7 9 9
1 2 8 10 8 7 6 4 5 4 12 8 6 8 17 21 21 20 18 16 15 13 11 11 9 9 8 7 5 4 3 3 3 2 1 3 2 2 1 5 5 5 4 4 4 5 6 7 8
4 4 9 6 7 8 7 8 6 5 8 9 14 17 20 21 21 20 18 16 15 13 12 11 10 7 6 4 5 5 1 5 4 4 5 2 1 3 2 4 5 6 6 6 7 7 8 7 5
3 5 4 6 11 10 10 8 7 4 5 8 17 20 19 19 19 17 15 14 13 12 11 11 10 9 6 6 4 3 3 10 3 3 5 6 5 3 2 3 3 5 6 3 8 7 6 7 9
2 5 4 9 9 10 11 8 12 13 10 13 21 22 19 18 17 15 13 11 12 12 11 10 9 8 8 6 4 5 3 4 1 1 3 2 2 1 3 3 4 2 4 7 7 8 11 10 11
1 4 6 10 10 11 11 9 11 15 15 18 21 19 17 15 14 13 12 11 11 10 10 9 10 10 8 8 6 5 5 3 3 3 4 2 1 2 2 4 4 5 5 6 7 9 10 12 10
5 10 12 10 10 10 12 12 5 12 16 18 17 17 16 14 13 12 12 10 10 9 9 9 10 10 8 7 7 6 5 4 5 3 4 1 4 4 5 4 2 3 5 9 10 10 11 9 8
11 11 10 8 8 7 10 6 12 16 17 17 17 16 15 14 12 11 9 9 8 7 8 9 9 10 10 9 6 5 4 4 3 4 5 2 2 2 6 5 4 2 2 6 5 4 6 6 8
6 8 7 7 8 7 6 9 12 14 16 16 15 14 13 13 12 11 9 8 6 9 9 8 8 10 10 9 8 6 5 5 4 4 6 5 5 4 4 4 3 2 4 6 4 5 5 6 7
7 2 1 6 8 5 8 6 12 14 13 13 12 11 10 10 9 10 10 10 9 9 8 8 10 10 9 10 9 8 7 6 5 5 4 4 2 3 1 4 6 4 5 5 4 5 6 7 6
5 3 3 6 7 8 6 3 10 14 12 11 10 9 9 8 9 9 11 11 11 11 9 8 9 13 11 10 10 8 7 6 5 5 4 4 4 6 4 4 4 7 8 4 5 6 5 7 6
2 3 6 0 2 6 7 4 9 11 13 12 11 9 9 8 8 9 10 14 13 12 12 11 12 14 13 11 11 11 9 6 6 6 8 6 7 8 11 6 7 7 7 10 9 8 8 6 7
3 8 2 2 3 7 2 7 7 10 12 12 12 10 9 8 8 7 7 12 15 16 16 16 15 16 15 12 11 8 8 7 7 7 8 8 8 7 7 8 10 10 8 11 10 9 8 8 7
5 6 0 5 5 5 4 13 10 8 8 9 10 10 8 8 9 6 6 11 14 17 19 19 17 16 14 13 11 9 9 10 8 8 7 7 9 10 10 11 13 14 14 13 13 10 10 9 10
10 5 4 5 8 1 5 6 11 12 9 11 12 12 9 9 8 8 8 9 14 15 16 17 16 17 14 14 11 10 10 10 8 9 10 10 11 12 13 13 15 15 16 17 15 13 13 13 12
5 5 3 6 6 6 10 7 7 10 9 9 8 9 8 8 8 9 11 9 8 12 12 16 18 14 14 12 11 8 8 12 10 12 13 13 15 18 17 17 18 17 18 17 20 22 19 16 15
3 3 5 6 4 9 6 6 9 5 8 9 10 12 11 10 8 8 10 9 7 9 11 14 15 11 10 13 12 13 10 9 8 10 11 12 13 14 17 17 18 19 19 19 19 20 20 19 18
9 12 8 7 7 5 4 6 8 11 13 13 11 14 11 11 10 8 7 9 9 8 11 10 13 8 8 7 9 10 6 7 8 8 9 11 11 13 12 12 15 14 18 20 21 21 21 22 21
15 16 10 5 8 3 5 6 6 11 14 13 9 8 10 13 12 7 6 5 5 8 9 9 8 6 8 12 9 11 13 9 9 12 12 11 10 10 12 12 14 16 17 19 23 24 20 19 20
10 9 7 11 7 9 4 4 12 13 13 14 14 14 16 15 13 11 9 8 10 10 10 9 7 7 5 7 7 10 12 16 15 13 11 11 13 14 13 14 16 17 16 18 19 19 19 21 22
8 4 7 8 5 7 4 4 5 12 14 15 16 19 18 17 15 13 12 11 10 11 12 12 10 8 5 3 2 3 6 7 9 8 11 14 14 14 14 15 16 17 15 17 20 17 18 20 19
5 10 9 6 5 8 7 4 6 5 13 17 19 20 21 20 18 15 13 11 9 9 10 10 9 7 5 1 4 6 8 10 13 15 17 19 20 22 23 23 21 20 18 16 17 19 20 19 20
8 10 12 9 9 5 8 8 5 4 7 19 20 21 19 18 19 17 15 12 10 9 9 7 7 6 2 3 5 7 10 13 14 17 19 20 21 21 21 22 23 23 22 19 18 18 17 19 20
Wind_Direction
19 16 345 294 202 72 71 74 101 107 103 55 123 72 70 30 360 54 141 148 147 145 150 146 140 132 126 119 115 111 109 102 104 107 107 104 99 93 98 100 106 105 103 105 111 115 120 117 121
328 12 358 286 65 69 67 73 64 64 86 110 114 99 91 84 59 128 142 149 147 148 146 149 141 137 128 121 114 110 107 99 96 98 102 101 108 113 96 96 107 106 104 114 116 116 122 123 123
32 24 314 55 56 57 74 73 94 105 113 131 103 68 57 54 113 139 152 149 148 147 147 155 144 140 132 126 119 110 104 99 95 92 95 95 96 97 116 109 108 102 111 121 122 125 122 130 127
337 298 285 65 77 59 72 84 111 112 99 96 103 84 82 94 132 147 148 149 150 150 148 155 150 148 140 134 128 116 105 101 90 89 91 81 85 115 111 118 108 119 109 114 127 137 138 138 134
304 273 103 74 78 73 69 90 96 88 83 95 64 97 92 118 138 146 149 151 154 150 159 160 161 158 152 146 140 128 114 100 88 78 79 82 80 117 119 129 133 124 112 119 133 140 135 143 146
218 269 68 67 78 75 87 118 82 70 95 95 110 103 87 116 136 148 152 153 159 153 158 166 167 168 161 153 152 143 132 107 79 69 64 79 91 99 129 132 159 150 136 133 141 143 155 153 150
322 20 48 70 82 79 74 136 25 73 97 101 118 115 120 134 145 150 154 159 162 161 160 164 166 171 166 164 167 164 162 152 84 45 50 68 80 99 130 140 141 165 171 167 158 177 175 175 174
304 291 78 66 64 77 91 81 71 40 79 117 58 142 155 153 150 153 158 165 169 172 171 167 167 171 166 218 212 201 225 237 209 345 359 9 38 5 99 152 225 193 199 186 191 189 191 197 202
341 197 71 63 57 109 132 91 63 88 125 77 53 90 142 153 152 156 162 170 176 180 181 174 183 178 183 187 269 232 241 243 255 294 312 319 192 236 345 255 237 218 205 227 223 219 217 218 224
293 54 47 21 82 104 105 60 92 114 125 111 104 112 134 149 158 163 171 179 184 184 190 185 183 193 199 205 213 269 231 262 277 288 291 324 249 231 210 291 265 243 236 236 236 234 235 235 230
96 25 30 98 98 107 106 85 77 138 116 137 141 136 144 154 164 171 177 184 186 188 194 193 193 195 201 212 219 222 236 247 252 297 292 257 276 241 275 289 313 254 251 237 274 268 264 240 231
198 32 68 120 126 121 89 99 72 63 73 121 143 145 146 157 166 173 178 184 188 193 198 200 204 197 195 218 223 225 218 266 207 9 33 26 326 235 294 255 233 264 246 240 251 247 249 232 241
356 91 95 137 134 112 116 87 98 88 101 123 139 153 152 156 164 169 177 183 193 198 204 203 204 206 204 208 222 225 221 235 248 234 2 86 301 306 306 316 277 259 258 262 263 260 260 253 249
93 103 106 131 127 138 118 123 123 116 128 133 147 157 165 168 171 177 187 186 193 195 206 206 207 211 217 219 221 221 216 210 250 273 305 339 96 85 24 359 353 276 267 263 264 262 269 267 246
128 116 117 127 148 149 143 150 110 145 144 152 161 167 173 179 183 189 193 205 207 202 201 209 208 212 217 221 210 211 210 249 262 293 306 293 313 305 323 22 13 42 309 330 329 292 280 284 271
166 182 180 155 180 158 230 109 142 159 163 164 171 178 186 193 197 201 212 211 208 210 211 206 207 209 214 211 213 207 223 233 231 239 301 289 304 303 306 312 6 5 336 345 343 316 316 290 261
206 144 278 169 200 167 228 93 163 178 180 172 180 192 204 213 213 221 222 223 217 232 218 210 207 205 208 216 213 220 235 250 250 249 259 284 302 297 266 329 297 293 306 332 314 294 311 314 290
117 225 227 271 179 222 219 205 169 188 192 182 198 203 225 235 244 239 234 222 218 224 214 194 202 213 211 213 215 221 227 241 252 242 253 272 282 287 303 275 288 274 281 289 286 312 321 302 281
6 302 290 162 133 245 245 272 187 182 206 202 207 211 216 234 242 243 245 219 212 214 207 203 202 203 204 211 221 225 218 243 248 245 250 258 260 277 274 262 268 295 273 281 290 297 304 298 284
265 271 172 119 234 247 191 239 200 186 210 207 200 211 231 239 229 237 230 205 200 204 200 200 200 201 209 208 209 212 229 223 236 244 253 254 270 270 281 273 264 277 266 279 280 290 273 283 285
233 337 223 318 169 225 247 236 202 178 203 202 193 205 217 229 215 209 202 201 197 200 202 204 202 199 202 202 211 224 229 239 252 257 261 256 268 278 274 270 269 269 266 262 272 273 271 271 270
277 20 275 176 207 266 218 321 182 155 180 194 183 200 198 184 190 189 192 199 206 206 205 203 204 204 207 213 212 221 228 242 246 247 256 250 265 270 272 271 271 272 276 269 267 271 259 257 270
14 332 238 193 229 266 175 263 105 153 189 163 167 171 173 186 194 185 188 190 199 204 203 198 207 205 214 209 212 227 259 264 258 254 264 274 274 282 269 268 267 270 269 270 266 266 270 272 263
129 173 164 194 249 247 93 282 305 112 155 136 167 161 158 158 157 167 190 195 184 190 184 199 196 181 193 202 215 228 248 287 267 267 269 280 282 286 277 268 269 267 264 269 276 273 276 273 264
211 206 205 220 208 274 75 268 292 120 135 142 135 173 187 181 170 165 179 194 197 177 183 195 202 193 192 187 204 222 232 264 285 291 285 275 286 296 282 271 266 267 271 270 273 275 276 272 272
207 239 274 246 271 359 155 273 67 116 146 155 135 141 159 163 168 158 154 165 168 165 160 160 167 177 196 224 244 245 245 276 288 303 276 276 287 290 295 299 275 271 272 275 276 275 274 274 270
173 228 289 285 241 271 285 255 196 140 152 158 150 142 145 149 146 139 128 118 104 113 114 118 129 137 181 210 243 267 264 265 279 287 286 275 279 283 289 292 293 293 288 275 281 282 276 273 267
275 15 218 212 265 259 165 263 329 159 168 166 164 149 149 148 144 138 127 119 112 102 96 94 97 103 101 68 20 305 301 292 289 294 285 290 297 295 292 291 297 299 293 282 285 290 280 270 267
172 223 230 300 297 310 273 57 55 93 169 170 170 157 156 152 150 146 138 130 120 107 96 92 86 86 78 11 298 296 301 306 303 293 293 292 289 286 287 288 286 289 296 299 298 296 289 282 275
274 278 208 231 196 237 312 308 106 88 166 166 165 163 159 158 154 153 149 141 129 111 97 86 78 64 16 309 311 313 302 297 297 296 295 296 296 296 297 295 292 288 287 292 295 295 290 292 286